Location: Amsterdam
(30.7274°N, 84.4357°W)
Time: 18:54:16
(UTC+00:00)

Altair - Pass Details

Date: 14 August 2024
Orbit: 1501 x 1682 km, 47.2° (Epoch: 07 September)

Event Time Altitude Azimuth Distance (km) Brightness Sun altitude
Rises 01:37:43 0° 295° (WNW) 4,688 11.9 -16.0°
Reaches altitude 10° 01:41:34 10° 282° (WNW) 3,681 10.7 -16.7°
Maximum altitude 01:48:19 23° 235° (SW) 2,754 9.1 -18.0°
Drops below altitude 10° 01:55:02 10° 186° (S) 3,639 9.2 -19.3°
Enters shadow 01:57:55 - 175° (S) 4,364 9.5 -19.8°
Sets 01:58:52 0° 173° (S) 4,622 - -20.0°
